SCP
0 0 0 0 0 0 0 0 0 0 0 0 0 0 0 0 0 0 0 0 0 0 0 0 0 0 0 0 0 0 0 0 0 0 0 0 0 0 0 0 0 0 0
0 0 0 0 0 0 0 0 0 0 0 0 0 0 0 0 0 0 0 0 0 0 0 0 0 0 0 0 0 0 0 0 0 0 0 0 0 0 0 0 0 0 0
0 0 0 0 0 0 0 0 0 0 0 0 0 0 0 0 0 0 0 0 0 0 0 0 0 0 0 0 0 0 0 0 0 0 0 0 0 0 0 0 0 0 0
0 0 0 0 0 0 0 0 0 0 0 0 0 0 0 0 0 0 0 0 0 0 0 0 0 0 0 0 0 0 0 0 0 0 0 0 0 0 0 0 0 0 0
0 0 0 0 0 0 0 0 0 0 0 0 0 0 0 0 0 0 0 0 0 0 0 0 0 0 0 0 0 0 0 0 0 0 0 0 0 0 0 0 0 0 0
0 0 0 0 0 0 0 0 0 0 0 0 0 0 0 0 0 0 0 0 0 0 0 0 0 0 0 0 0 0 0 0 0 0 0 0 0 0 0 0 0 0 0
0 0 0 0 0 0 0 0 0 0 0 0 0 0 0 0 0 0 0 0 0 0 0 0 0 0 0 0 0 0 0 0 0 0 0 0 0 0 0 0 0 0 0
0 0 0 0 0 0 0 0 0 0 0 0 0 0 0 0 0 0 0 0 0 0 0 0 0 0 0 0 0 0 0 0 0 0 0 0 0 0 0 0 0 0 0
0 0 0 0 0 0 0 0 0 0 0 0 0 0 0 0 0 0 0 0 0 0 0 0 0 0 0 0 0 0 0 0 0 0 0 0 0 0 0 0 0 0 0
0 0 0 0 0 0 0 0 0 0 0 0 0 0 0 0 0 0 0 0 0 0 0 0 0 0 0 0 0 0 0 0 0 0 0 0 0 0 0 0 0 0 0
0 0 0 0 0 0 0 0 0 0 0 0 0 0 0 0 0 0 0 0 0 0 0 0 0 0 0 0 0 0 0 0 0 0 0 0 0 0 0 0 0 0 0
0 0 0 0 0 0 0 0 0 0 0 0 0 0 0 0 0 0 0 0 0 0 0 0 0 0 0 0 0 0 0 0 0 0 0 0 0 0 0 0 0 0 0
0 0 0 0 0 0 0 0 0 0 0 0 0 0 0 0 0 0 0 0 0 0 0 0 0 0 0 0 0 0 0 0 0 0 0 0 0 0 0 0 0 0 0
0 0 0 0 0 0 0 0 0 0 0 0 0 0 0 0 0 0 0 0 0 0 0 0 0 0 0 0 0 0 0 0 0 0 0 0 0 0 0 0 0 0 0
0 0 0 0 0 0 0 0 0 0 0 0 0 0 0 0 0 0 0 0 0 0 0 0 0 0 0 0 0 0 0 0 0 0 0 0 0 0 0 0 0 0 0
0 0 0 0 0 0 0 0 0 0 0 0 0 0 0 0 0 0 0 0 0 0 0 0 0 0 0 0 0 0 0 0 0 0 0 0 0 0 0 0 0 0 0
0 0 0 0 0 0 0 0 0 0 0 0 0 0 0 0 0 0 0 0 0 0 0 0 0 0 0 0 0 0 0 0 0 0 0 0 0 0 0 0 0 0 0
0 0 0 0 0 0 0 0 0 0 0 0 0 0 0 0 0 0 0 0 0 0 0 0 0 0 0 0 0 0 0 0 0 0 0 0 0 0 0 0 0 0 0
-0 -0 -0 -0 0 0 0 0 0 0 0 0 0 0 0 0 0 0 0 0 0 0 0 0 0 0 0 0 0 0 0 0 0 0 0 0 0 0 0 0 0 0 0
0 0 0 0 0 0 0 0 0 0 0 0 0 0 0 0 0 0 0 0 0 0 0 0 0 0 0 0 0 0 0 0 0 0 0 0 0 0 0 0 0 0 0
0 0 0 0 0 0 0 0 0 0 0 0 0 0 0 0 0 0 0 0 0 0 0 0 0 0 0 0 0 0 0 0 0 0 0 0 0 0 0 0 0 0 0
0 0 0 0 0 0 0 0 0 0 0 0 0 0 0 0 0 0 0 0 0 0 0 0 0 0 0 0 0 0 0 0 0 0 0 0 0 0 -0 -0 -0 -0 0
0 0 0 0 0 0 0 0 0 0 0 0 0 0 0 0 0 0 0 0 0 0 0 0 0 0 0 0 0 0 0 0 0 0 0 0 0 0 0 0 0 0 0
0 0 0 0 0 0 0 0 0 0 0 0 0 0 0 0 0 0 0 0 0 0 0 0 0 0 0 0 0 0 0 0 0 0 0 0 0 0 0 0 0 0 0
0 0 0 0 0 0 0 0 0 0 -0 -0 0 0 0 0 0 0 0 0 0 0 0 0 0 0 0 0 0 0 0 0 0 0 0 -0 0 0 0 0 0 -0 0
0 -0 0 0 0 0 0 0 0 -0 0 0 -0 0 0 0 0 0 0 0 0 0 0 0 0 0 0 0 0 0 0 0 0 0 0 0 0 0 0 0 0 0 0
Wind_Speed_500mb
67 64 62 53 47 50 50 50 44 40 38 39 38 37 39 39 36 34 29 28 24 28 29 31 34 33 34 34 38 32 24 19 18 19 20 23 25 26 28 29 30 30 31
72 67 65 62 51 56 56 54 48 43 39 37 40 42 45 45 43 41 37 33 32 30 34 36 39 40 44 44 43 42 47 38 33 30 24 25 28 30 32 34 35 36 37
74 70 67 58 57 59 56 54 49 45 40 40 39 42 45 47 46 45 42 40 40 39 38 39 44 47 46 51 50 50 47 41 40 41 46 41 35 36 38 39 40 41 41
73 71 68 61 60 61 58 57 52 47 44 41 37 38 44 46 46 46 47 47 46 47 47 46 46 50 54 50 53 55 47 48 50 43 47 50 54 49 44 45 45 47 48
72 73 71 64 60 60 63 60 56 52 46 44 38 37 40 45 43 47 51 49 50 52 54 53 51 52 55 60 58 56 53 55 57 51 52 59 58 57 51 47 49 51 52
73 72 71 66 63 61 63 62 57 57 53 46 42 41 41 40 44 50 51 49 52 54 55 57 56 56 56 60 64 66 66 64 59 54 55 59 64 64 61 55 54 53 55
71 73 76 67 70 69 69 64 59 57 57 51 47 46 52 48 50 56 51 52 54 53 56 58 58 60 61 61 64 67 70 66 64 64 63 65 62 67 67 66 59 59 59
67 71 69 69 74 72 71 67 67 64 62 58 54 51 30 45 61 60 60 61 55 54 39 42 52 55 59 63 64 67 72 75 71 72 72 72 70 64 63 64 64 65 65
68 61 59 61 67 73 73 69 69 67 64 63 61 54 22 31 34 41 44 43 40 42 47 48 46 51 57 60 64 65 69 71 77 79 81 84 78 67 70 69 69 69 69
71 63 60 57 63 68 69 67 66 64 65 70 67 74 75 64 41 37 49 50 50 56 54 52 52 53 53 56 61 63 66 70 75 79 83 83 82 81 79 73 70 74 77
68 63 62 63 62 65 67 67 63 63 65 62 68 79 82 79 87 79 54 54 56 55 60 58 54 46 50 57 62 64 66 71 74 76 78 79 80 80 77 69 69 72 74
62 68 63 61 62 61 60 60 64 67 65 68 60 71 73 63 51 49 53 62 55 50 53 53 54 53 51 52 54 59 62 61 63 66 64 66 70 74 77 76 66 69 72
57 63 64 65 66 62 61 62 67 69 64 59 64 51 47 44 39 42 41 39 32 33 36 40 42 43 45 47 50 53 56 60 64 70 74 75 78 86 87 88 84 78 74
44 41 59 54 56 54 55 50 48 39 27 24 19 23 23 21 18 17 19 19 20 16 25 28 33 38 39 42 46 51 56 60 63 68 71 77 83 89 96 100 101 97 84
31 33 31 30 23 20 15 14 14 9 1 8 13 13 16 18 18 17 19 19 18 12 24 23 26 26 36 46 52 58 61 64 66 68 71 74 77 79 79 78 76 75 74
47 42 46 38 36 37 29 25 28 29 22 25 23 19 19 17 16 16 15 13 12 13 14 24 32 39 44 48 51 54 56 60 63 65 67 69 72 73 74 74 74 74 73
52 51 52 46 42 42 43 38 39 36 34 32 31 29 29 28 28 28 29 30 31 31 31 36 39 43 47 49 53 57 60 63 65 68 70 73 75 76 78 80 82 76 66
67 64 59 58 57 56 54 51 48 46 44 43 41 36 39 36 35 35 35 34 34 35 38 42 45 47 51 56 61 66 67 68 71 73 75 77 80 81 81 80 80 86 88
73 71 69 69 66 62 58 56 51 50 47 44 41 40 41 40 42 43 43 44 46 46 47 51 55 55 58 61 68 74 73 75 74 81 87 90 90 85 79 84 94 101 97
76 75 74 72 68 64 60 56 52 51 50 47 47 47 47 48 48 49 51 53 56 56 55 55 57 57 59 62 71 75 89 85 95 93 98 91 76 83 100 106 105 104 104
72 69 69 68 66 64 60 54 51 50 47 46 45 46 46 46 46 50 50 51 52 52 51 52 55 56 58 68 72 74 90 97 97 89 63 69 81 116 111 108 109 101 95
72 68 68 66 65 62 53 50 46 45 44 45 46 47 47 48 49 51 53 51 50 52 51 48 47 54 62 63 67 72 76 87 94 79 56 112 92 107 98 102 74 74 87
66 67 62 57 58 54 46 44 44 45 46 46 47 49 52 53 55 60 59 60 57 55 47 44 48 55 64 62 69 81 75 78 89 98 93 103 89 98 92 76 82 89 103
62 60 57 53 48 45 40 40 41 45 49 52 53 55 56 57 57 58 61 60 62 57 46 42 51 60 62 62 62 67 75 85 98 98 68 85 102 86 87 98 113 106 92
60 57 50 45 45 43 43 45 50 51 51 52 50 56 60 60 61 58 61 58 63 56 50 67 72 71 70 69 66 67 77 74 90 101 92 54 72 96 108 112 107 95 88
54 50 47 45 43 46 50 47 50 51 55 58 58 62 64 66 60 59 61 63 63 58 76 79 74 68 64 63 60 57 62 70 81 88 74 66 94 95 80 104 107 125 109
Wind_Direction_500mb
211 211 209 202 195 200 198 204 208 209 213 219 218 215 219 224 227 227 226 235 237 226 234 252 264 273 282 284 298 294 285 279 282 286 290 293 292 289 287 286 285 281 276
215 213 213 206 203 204 203 209 214 216 222 225 225 224 225 227 232 235 239 243 241 239 236 236 248 256 265 269 278 282 293 298 291 289 285 286 288 287 284 282 281 279 277
217 217 217 213 212 207 208 213 217 221 225 228 228 227 226 228 231 237 242 246 248 248 249 246 243 245 252 255 258 271 276 284 291 283 293 295 295 287 283 280 280 280 277
217 217 217 213 216 209 211 217 221 225 230 232 229 231 231 234 236 240 246 250 252 253 256 256 253 249 250 251 249 254 260 277 293 282 288 285 289 296 286 281 278 276 274
214 218 219 215 217 214 218 221 224 227 234 236 233 237 240 243 247 251 255 257 258 259 261 263 262 260 254 250 253 253 254 267 283 275 277 286 289 281 280 272 270 270 268
216 218 221 223 215 217 220 223 227 229 234 239 242 245 245 249 256 261 262 262 262 264 266 268 268 265 261 256 254 255 255 262 270 270 274 273 279 284 276 267 269 267 266
216 219 220 220 219 221 222 225 225 232 237 236 239 244 246 255 257 262 264 266 268 270 270 270 270 270 267 263 260 256 257 261 262 265 267 269 268 279 276 275 267 266 265
226 222 226 224 222 221 225 227 228 231 235 236 238 243 251 263 255 259 265 270 272 271 274 275 273 272 270 267 265 262 258 260 262 262 263 262 265 267 267 267 265 266 267
232 227 228 228 224 223 228 229 232 234 239 242 240 239 238 239 257 261 261 265 257 252 268 269 268 269 269 270 270 270 267 265 266 267 266 267 267 265 261 262 264 265 265
231 230 232 233 230 231 233 237 238 242 243 249 248 248 243 251 258 277 269 263 260 261 259 258 262 265 265 265 266 265 264 262 261 262 264 266 267 268 266 264 263 264 264
235 234 236 237 238 237 238 241 244 247 251 254 262 262 255 256 254 256 261 258 258 251 256 257 253 251 255 262 260 262 265 265 266 265 266 267 267 267 267 270 269 268 268
232 239 238 241 246 248 248 251 250 254 255 259 265 264 259 257 257 266 270 262 264 270 264 265 262 271 271 271 271 273 272 269 269 270 271 273 273 272 271 271 273 272 271
230 227 227 232 235 239 247 247 246 247 255 256 257 258 266 273 274 272 272 273 274 274 278 277 279 282 283 283 285 284 283 281 281 281 278 272 271 276 279 276 275 275 278
211 210 218 212 218 226 236 229 232 242 245 246 251 260 278 285 293 296 281 289 292 288 286 293 298 300 298 296 295 292 290 287 284 282 280 278 277 277 278 279 279 278 278
158 141 166 167 138 151 157 156 133 118 131 39 51 49 50 42 30 23 10 354 343 312 304 306 305 299 292 289 287 285 286 285 283 283 282 282 281 280 279 280 281 283 284
102 98 105 102 97 96 94 78 85 81 72 79 76 65 62 58 47 37 30 18 6 351 324 316 306 306 306 307 303 302 301 300 297 294 293 293 293 292 291 289 287 287 286
97 96 90 93 93 89 86 90 94 93 89 88 80 67 61 47 39 31 23 16 7 359 341 331 322 320 317 311 308 305 304 302 299 298 298 296 295 293 292 290 287 287 288
100 98 96 97 94 90 89 88 87 83 78 70 64 57 53 44 36 30 22 13 5 355 342 328 326 318 316 312 309 307 305 302 300 298 295 294 294 293 292 290 286 287 286
98 95 94 90 88 84 80 76 73 70 67 64 58 51 46 35 25 15 8 360 353 345 337 328 322 321 316 317 313 313 311 309 306 305 304 303 303 299 295 297 297 298 295
92 89 87 86 83 79 75 72 69 66 61 54 47 39 31 22 13 5 360 354 349 344 337 330 324 320 318 316 313 314 310 309 308 308 308 309 302 302 303 304 303 302 299
92 91 89 86 82 77 71 67 64 59 53 45 36 28 20 10 2 355 351 347 341 336 331 324 319 317 318 317 317 315 311 311 310 313 311 305 300 307 307 307 305 301 298
92 90 87 84 79 72 65 60 54 49 40 31 24 17 9 2 354 350 344 340 336 331 327 323 320 317 316 314 314 314 309 313 311 312 301 303 306 306 307 308 300 295 295
90 87 84 81 77 73 63 54 44 38 30 23 18 11 4 358 352 349 343 340 337 333 326 320 315 316 312 314 312 309 308 303 301 302 306 304 307 304 306 297 296 297 296
85 82 81 79 76 70 58 46 36 30 24 17 11 6 1 355 352 348 341 337 335 332 327 314 315 313 310 309 305 302 302 299 301 306 307 299 312 305 307 298 304 305 298
86 81 77 71 63 55 43 35 28 24 18 12 6 2 360 354 349 348 339 332 329 330 319 313 313 311 309 308 310 310 312 312 311 313 316 304 302 300 306 307 310 303 296
82 77 69 62 52 46 35 26 23 17 12 8 4 357 355 352 346 344 337 330 329 329 314 316 318 318 320 322 323 320 316 309 309 311 314 307 307 308 305 304 303 306 306
Wind_Speed_850mb
67 64 62 53 47 50 50 50 44 40 38 39 38 37 39 39 36 34 29 28 24 28 29 31 34 33 34 34 38 32 24 19 18 19 20 23 25 26 28 29 30 30 31
72 67 65 62 51 56 56 54 48 43 39 37 40 42 45 45 43 41 37 33 32 30 34 36 39 40 44 44 43 42 47 38 33 30 24 25 28 30 32 34 35 36 37
74 70 67 58 57 59 56 54 49 45 40 40 39 42 45 47 46 45 42 40 40 39 38 39 44 47 46 51 50 50 47 41 40 41 46 41 35 36 38 39 40 41 41
73 71 68 61 60 61 58 57 52 47 44 41 37 38 44 46 46 46 47 47 46 47 47 46 46 50 54 50 53 55 47 48 50 43 47 50 54 49 44 45 45 47 48
72 73 71 64 60 60 63 60 56 52 46 44 38 37 40 45 43 47 51 49 50 52 54 53 51 52 55 60 58 56 53 55 57 51 52 59 58 57 51 47 49 51 52
73 72 71 66 63 61 63 62 57 57 53 46 42 41 41 40 44 50 51 49 52 54 55 57 56 56 56 60 64 66 66 64 59 54 55 59 64 64 61 55 54 53 55
71 73 76 67 70 69 69 64 59 57 57 51 47 46 52 48 50 56 51 52 54 53 56 58 58 60 61 61 64 67 70 66 64 64 63 65 62 67 67 66 59 59 59
67 71 69 69 74 72 71 67 67 64 62 58 54 51 30 45 61 60 60 61 55 54 39 42 52 55 59 63 64 67 72 75 71 72 72 72 70 64 63 64 64 65 65
68 61 59 61 67 73 73 69 69 67 64 63 61 54 22 31 34 41 44 43 40 42 47 48 46 51 57 60 64 65 69 71 77 79 81 84 78 67 70 69 69 69 69
71 63 60 57 63 68 69 67 66 64 65 70 67 74 75 64 41 37 49 50 50 56 54 52 52 53 53 56 61 63 66 70 75 79 83 83 82 81 79 73 70 74 77
68 63 62 63 62 65 67 67 63 63 65 62 68 79 82 79 87 79 54 54 56 55 60 58 54 46 50 57 62 64 66 71 74 76 78 79 80 80 77 69 69 72 74
62 68 63 61 62 61 60 60 64 67 65 68 60 71 73 63 51 49 53 62 55 50 53 53 54 53 51 52 54 59 62 61 63 66 64 66 70 74 77 76 66 69 72
57 63 64 65 66 62 61 62 67 69 64 59 64 51 47 44 39 42 41 39 32 33 36 40 42 43 45 47 50 53 56 60 64 70 74 75 78 86 87 88 84 78 74
44 41 59 54 56 54 55 50 48 39 27 24 19 23 23 21 18 17 19 19 20 16 25 28 33 38 39 42 46 51 56 60 63 68 71 77 83 89 96 100 101 97 84
31 33 31 30 23 20 15 14 14 9 1 8 13 13 16 18 18 17 19 19 18 12 24 23 26 26 36 46 52 58 61 64 66 68 71 74 77 79 79 78 76 75 74
47 42 46 38 36 37 29 25 28 29 22 25 23 19 19 17 16 16 15 13 12 13 14 24 32 39 44 48 51 54 56 60 63 65 67 69 72 73 74 74 74 74 73
52 51 52 46 42 42 43 38 39 36 34 32 31 29 29 28 28 28 29 30 31 31 31 36 39 43 47 49 53 57 60 63 65 68 70 73 75 76 78 80 82 76 66
67 64 59 58 57 56 54 51 48 46 44 43 41 36 39 36 35 35 35 34 34 35 38 42 45 47 51 56 61 66 67 68 71 73 75 77 80 81 81 80 80 86 88
73 71 69 69 66 62 58 56 51 50 47 44 41 40 41 40 42 43 43 44 46 46 47 51 55 55 58 61 68 74 73 75 74 81 87 90 90 85 79 84 94 101 97
76 75 74 72 68 64 60 56 52 51 50 47 47 47 47 48 48 49 51 53 56 56 55 55 57 57 59 62 71 75 89 85 95 93 98 91 76 83 100 106 105 104 104
72 69 69 68 66 64 60 54 51 50 47 46 45 46 46 46 46 50 50 51 52 52 51 52 55 56 58 68 72 74 90 97 97 89 63 69 81 116 111 108 109 101 95
72 68 68 66 65 62 53 50 46 45 44 45 46 47 47 48 49 51 53 51 50 52 51 48 47 54 62 63 67 72 76 87 94 79 56 112 92 107 98 102 74 74 87
66 67 62 57 58 54 46 44 44 45 46 46 47 49 52 53 55 60 59 60 57 55 47 44 48 55 64 62 69 81 75 78 89 98 93 103 89 98 92 76 82 89 103
62 60 57 53 48 45 40 40 41 45 49 52 53 55 56 57 57 58 61 60 62 57 46 42 51 60 62 62 62 67 75 85 98 98 68 85 102 86 87 98 113 106 92
60 57 50 45 45 43 43 45 50 51 51 52 50 56 60 60 61 58 61 58 63 56 50 67 72 71 70 69 66 67 77 74 90 101 92 54 72 96 108 112 107 95 88
54 50 47 45 43 46 50 47 50 51 55 58 58 62 64 66 60 59 61 63 63 58 76 79 74 68 64 63 60 57 62 70 81 88 74 66 94 95 80 104 107 125 109
Wind_Direction_850mb
211 211 209 202 195 200 198 204 208 209 213 219 218 215 219 224 227 227 226 235 237 226 234 252 264 273 282 284 298 294 285 279 282 286 290 293 292 289 287 286 285 281 276
215 213 213 206 203 204 203 209 214 216 222 225 225 224 225 227 232 235 239 243 241 239 236 236 248 256 265 269 278 282 293 298 291 289 285 286 288 287 284 282 281 279 277
217 217 217 213 212 207 208 213 217 221 225 228 228 227 226 228 231 237 242 246 248 248 249 246 243 245 252 255 258 271 276 284 291 283 293 295 295 287 283 280 280 280 277
217 217 217 213 216 209 211 217 221 225 230 232 229 231 231 234 236 240 246 250 252 253 256 256 253 249 250 251 249 254 260 277 293 282 288 285 289 296 286 281 278 276 274
214 218 219 215 217 214 218 221 224 227 234 236 233 237 240 243 247 251 255 257 258 259 261 263 262 260 254 250 253 253 254 267 283 275 277 286 289 281 280 272 270 270 268
216 218 221 223 215 217 220 223 227 229 234 239 242 245 245 249 256 261 262 262 262 264 266 268 268 265 261 256 254 255 255 262 270 270 274 273 279 284 276 267 269 267 266
216 219 220 220 219 221 222 225 225 232 237 236 239 244 246 255 257 262 264 266 268 270 270 270 270 270 267 263 260 256 257 261 262 265 267 269 268 279 276 275 267 266 265
226 222 226 224 222 221 225 227 228 231 235 236 238 243 251 263 255 259 265 270 272 271 274 275 273 272 270 267 265 262 258 260 262 262 263 262 265 267 267 267 265 266 267
232 227 228 228 224 223 228 229 232 234 239 242 240 239 238 239 257 261 261 265 257 252 268 269 268 269 269 270 270 270 267 265 266 267 266 267 267 265 261 262 264 265 265
231 230 232 233 230 231 233 237 238 242 243 249 248 248 243 251 258 277 269 263 260 261 259 258 262 265 265 265 266 265 264 262 261 262 264 266 267 268 266 264 263 264 264
235 234 236 237 238 237 238 241 244 247 251 254 262 262 255 256 254 256 261 258 258 251 256 257 253 251 255 262 260 262 265 265 266 265 266 267 267 267 267 270 269 268 268
232 239 238 241 246 248 248 251 250 254 255 259 265 264 259 257 257 266 270 262 264 270 264 265 262 271 271 271 271 273 272 269 269 270 271 273 273 272 271 271 273 272 271
230 227 227 232 235 239 247 247 246 247 255 256 257 258 266 273 274 272 272 273 274 274 278 277 279 282 283 283 285 284 283 281 281 281 278 272 271 276 279 276 275 275 278
211 210 218 212 218 226 236 229 232 242 245 246 251 260 278 285 293 296 281 289 292 288 286 293 298 300 298 296 295 292 290 287 284 282 280 278 277 277 278 279 279 278 278
158 141 166 167 138 151 157 156 133 118 131 39 51 49 50 42 30 23 10 354 343 312 304 306 305 299 292 289 287 285 286 285 283 283 282 282 281 280 279 280 281 283 284
102 98 105 102 97 96 94 78 85 81 72 79 76 65 62 58 47 37 30 18 6 351 324 316 306 306 306 307 303 302 301 300 297 294 293 293 293 292 291 289 287 287 286
97 96 90 93 93 89 86 90 94 93 89 88 80 67 61 47 39 31 23 16 7 359 341 331 322 320 317 311 308 305 304 302 299 298 298 296 295 293 292 290 287 287 288
100 98 96 97 94 90 89 88 87 83 78 70 64 57 53 44 36 30 22 13 5 355 342 328 326 318 316 312 309 307 305 302 300 298 295 294 294 293 292 290 286 287 286
98 95 94 90 88 84 80 76 73 70 67 64 58 51 46 35 25 15 8 360 353 345 337 328 322 321 316 317 313 313 311 309 306 305 304 303 303 299 295 297 297 298 295
92 89 87 86 83 79 75 72 69 66 61 54 47 39 31 22 13 5 360 354 349 344 337 330 324 320 318 316 313 314 310 309 308 308 308 309 302 302 303 304 303 302 299
92 91 89 86 82 77 71 67 64 59 53 45 36 28 20 10 2 355 351 347 341 336 331 324 319 317 318 317 317 315 311 311 310 313 311 305 300 307 307 307 305 301 298
92 90 87 84 79 72 65 60 54 49 40 31 24 17 9 2 354 350 344 340 336 331 327 323 320 317 316 314 314 314 309 313 311 312 301 303 306 306 307 308 300 295 295
90 87 84 81 77 73 63 54 44 38 30 23 18 11 4 358 352 349 343 340 337 333 326 320 315 316 312 314 312 309 308 303 301 302 306 304 307 304 306 297 296 297 296
85 82 81 79 76 70 58 46 36 30 24 17 11 6 1 355 352 348 341 337 335 332 327 314 315 313 310 309 305 302 302 299 301 306 307 299 312 305 307 298 304 305 298
86 81 77 71 63 55 43 35 28 24 18 12 6 2 360 354 349 348 339 332 329 330 319 313 313 311 309 308 310 310 312 312 311 313 316 304 302 300 306 307 310 303 296
82 77 69 62 52 46 35 26 23 17 12 8 4 357 355 352 346 344 337 330 329 329 314 316 318 318 320 322 323 320 316 309 309 311 314 307 307 308 305 304 303 306 306